GW1347 Weather Reports


Display with metric or nautical units.
time (UTC)temp
F
wind
direction
speed
MPH
gust
MPH
rain 1hr
in
rain 24hr
in
rain mn
in
humidity
%
barometer
mb
20260905143326 83 127 5.0 12.0 0.00 0.00 0.00 58 1015.1
20260905142346 82 237 5.0 12.0 0.00 0.00 0.00 59 1015.5
20260905140216 81 220 4.0 9.0 0.00 0.00 0.00 62 1015.6
20260905135155 81 107 4.0 13.0 0.00 0.00 0.00 62 1015.6
20260905131908 79 103 4.0 11.0 0.00 0.00 0.00 67 1015.8
20260905130930 78 125 5.0 10.0 0.00 0.00 0.00 68 1015.9
20260905125908 78 308 6.0 15.0 0.00 0.00 0.00 68 1016.1
20260905124904 77 135 6.0 15.0 0.00 0.00 0.00 70 1015.7
20260905123920 77 127 4.0 9.0 0.00 0.00 0.00 71 1016.0
20260905122851 77 117 4.0 10.0 0.00 0.00 0.00 73 1015.8
20260905121848 76 77 4.0 11.0 0.00 0.00 0.00 75 1015.9
20260905120852 76 111 5.0 12.0 0.00 0.00 0.00 77 1016.1
20260905115829 76 102 5.0 13.0 0.00 0.00 0.00 76 1015.9
20260905114804 76 126 5.0 14.0 0.00 0.00 0.00 76 1015.9
20260905113756 76 142 7.0 20.0 0.00 0.00 0.00 78 1015.8
20260905112734 76 89 8.0 20.0 0.00 0.00 0.00 81 1015.6
20260905110702 77 70 0.0 3.0 0.00 0.00 0.00 91 1014.3
20260905105719 77 345 0.0 0.0 0.00 0.00 0.00 91 1013.9
20260905103501 77 345 0.0 0.0 0.00 0.00 0.00 90 1013.6
20260905101400 78 345 0.0 0.0 0.00 0.00 0.00 90 1013.7
20260905100422 78 345 0.0 0.0 0.00 0.00 0.00 90 1013.8
20260905094325 78 75 0.0 0.0 0.00 0.00 0.00 90 1013.6
20260905093341 78 75 0.0 0.0 0.00 0.00 0.00 89 1013.6
20260905090118 78 75 0.0 0.0 0.00 0.00 0.00 89 1013.5
20260905085110 78 75 0.0 0.0 0.00 0.00 0.00 88 1013.4
20260905084131 79 75 1.0 3.0 0.00 0.00 0.00 88 1013.3
20260905083101 79 242 0.0 3.0 0.00 0.00 0.00 87 1013.3
20260905082033 79 146 0.0 1.0 0.00 0.00 0.00 88 1013.2
20260905081053 79 156 1.0 3.0 0.00 0.00 0.00 88 1013.2
20260905080033 79 32 1.0 3.0 0.00 0.00 0.00 89 1013.0
20260905075046 79 224 1.0 0.0 0.00 0.00 0.00 89 1012.9
20260905074030 78 245 1.0 3.0 0.00 0.00 0.00 90 1012.9
20260905073045 79 238 0.0 0.0 0.00 0.00 0.00 90 1012.9
20260905072048 78 206 0.0 0.0 0.00 0.00 0.00 90 1013.1
20260905071040 78 206 0.0 0.0 0.00 0.00 0.00 90 1013.1
20260905070105 78 206 0.0 0.0 0.00 0.00 0.00 88 1013.2
20260905065125 79 206 0.0 0.0 0.00 0.00 0.00 88 1013.4
20260905064053 79 206 0.0 0.0 0.00 0.00 0.00 89 1013.5
20260905063046 80 206 0.0 0.0 0.00 0.00 0.00 87 1013.7
20260905062050 80 206 0.0 0.0 0.00 0.00 0.00 88 1013.8
20260905055838 81 206 0.0 0.0 0.00 0.00 0.00 84 1014.0
20260905054858 80 206 0.0 0.0 0.00 0.00 0.00 86 1014.0
20260905053920 81 206 0.0 2.0 0.00 0.00 0.00 84 1013.8
20260905052900 81 176 0.0 1.0 0.00 0.00 0.00 83 1014.0
20260905051839 81 202 1.0 4.0 0.00 0.00 0.00 82 1014.2
20260905050810 81 33 1.0 3.0 0.00 0.00 0.00 82 1014.2
20260905045736 81 219 1.0 3.0 0.00 0.00 0.00 84 1014.4
20260905044704 81 0 0.0 0.0 0.00 0.00 0.00 84 1014.4
20260905043659 82 0 0.0 0.0 0.00 0.00 0.00 83 1014.6
20260905042627 82 0 0.0 0.0 0.00 0.00 0.00 82 1014.6
20260905041615 82 274 0.0 0.0 0.00 0.00 0.00 81 1014.6
20260905040552 83 274 0.0 0.0 0.00 0.00 0.00 80 1014.6
20260905035540 84 77 0.0 0.0 0.00 0.00 0.00 78 1014.6
20260905034523 83 77 0.0 0.0 0.00 0.00 0.00 80 1014.5
20260905033536 83 150 0.0 0.0 0.00 0.00 0.00 79 1014.5
20260905032522 84 150 0.0 0.0 0.00 0.00 0.00 77 1014.4
20260905031536 84 150 0.0 0.0 0.00 0.00 0.00 76 1014.2
20260905030551 84 136 2.0 4.0 0.00 0.00 0.00 75 1014.3
20260905025605 85 142 1.0 4.0 0.00 0.00 0.00 74 1014.3
20260905023451 85 79 0.0 4.0 0.00 0.00 0.00 73 1014.3
20260905022422 85 165 1.0 5.0 0.00 0.00 0.00 73 1014.3
20260905021422 86 103 2.0 5.0 0.00 0.00 0.00 72 1014.5
20260905020438 86 70 0.0 2.0 0.00 0.00 0.00 72 1014.4
20260905015421 85 103 0.0 1.0 0.00 0.00 0.00 78 1014.3
20260905014427 86 276 0.0 0.0 0.00 0.00 0.00 79 1014.0
20260905013448 86 276 0.0 0.0 0.00 0.00 0.00 77 1013.9
20260905012456 87 276 0.0 0.0 0.00 0.00 0.00 76 1014.0
20260905011425 87 276 0.0 0.0 0.00 0.00 0.00 75 1013.9
20260905004152 90 314 0.0 0.0 0.00 0.00 0.00 68 1013.7
20260905003207 90 312 0.0 1.0 0.00 0.00 0.00 66 1013.7
20260905001002 92 15 0.0 0.0 0.00 0.00 0.00 61 1013.6
20260904235947 93 1 0.0 0.0 0.00 0.00 0.00 60 1013.4
20260904234918 95 6 0.0 0.0 0.00 0.00 0.00 56 1013.4
20260904232817 97 321 0.0 0.0 0.00 0.00 0.00 53 1013.4
20260904231754 98 297 0.0 0.0 0.00 0.00 0.00 52 1013.3
20260904230811 99 319 0.0 0.0 0.00 0.00 0.00 53 1013.4
20260904223629 99 252 1.0 0.0 0.00 0.00 0.00 50 1013.6
20260904222626 99 235 0.0 6.0 0.00 0.00 0.00 49 1013.5
20260904220425 100 327 0.0 2.0 0.00 0.00 0.00 48 1013.6
20260904215448 100 291 1.0 2.0 0.00 0.00 0.00 49 1013.6
20260904214439 100 271 1.0 4.0 0.00 0.00 0.00 47 1013.5
20260904213422 101 231 0.0 4.0 0.00 0.00 0.00 46 1013.7
20260904212355 100 262 1.0 6.0 0.00 0.00 0.00 48 1013.7
20260904211330 100 354 1.0 6.0 0.00 0.00 0.00 47 1013.8
20260904205209 99 264 1.0 5.0 0.00 0.00 0.00 48 1014.0
20260904204156 100 271 1.0 3.0 0.00 0.00 0.00 48 1014.1
20260904200942 101 273 1.0 3.0 0.00 0.00 0.00 46 1014.4
20260904200002 101 294 1.0 3.0 0.00 0.00 0.00 45 1014.6
20260904194955 100 239 2.0 8.0 0.00 0.00 0.00 46 1014.7
20260904193949 99 330 2.0 8.0 0.00 0.00 0.00 48 1014.8
20260904192952 99 295 2.0 6.0 0.00 0.00 0.00 47 1014.9
20260904192008 100 200 2.0 8.0 0.00 0.00 0.00 48 1015.2
20260904190937 99 281 3.0 8.0 0.00 0.00 0.00 47 1015.2
20260904184835 100 285 1.0 4.0 0.00 0.00 0.00 48 1015.6
20260904183858 99 252 2.0 6.0 0.00 0.00 0.00 49 1015.6
20260904182840 98 242 3.0 7.0 0.00 0.00 0.00 50 1015.7
20260904181857 98 217 1.0 8.0 0.00 0.00 0.00 51 1015.7
20260904180846 96 319 3.0 8.0 0.00 0.00 0.00 54 1015.9
20260904175910 97 231 1.0 8.0 0.00 0.00 0.00 51 1016.0
20260904174921 97 43 2.0 8.0 0.00 0.00 0.00 53 1016.2
20260904173929 97 253 1.0 6.0 0.00 0.00 0.00 54 1016.4
20260904172906 97 233 3.0 7.0 0.00 0.00 0.00 52 1016.4
20260904171905 97 247 2.0 8.0 0.00 0.00 0.00 52 1016.5
20260904170905 97 308 2.0 8.0 0.00 0.00 0.00 54 1016.6
20260904165834 96 329 2.0 8.0 0.00 0.00 0.00 55 1016.6
20260904164819 96 345 2.0 8.0 0.00 0.00 0.00 55 1016.8
20260904163757 96 267 1.0 6.0 0.00 0.00 0.00 55 1016.9
20260904162750 96 342 1.0 6.0 0.00 0.00 0.00 53 1017.0
20260904161806 97 268 1.0 4.0 0.00 0.00 0.00 53 1016.9
20260904160736 97 240 1.0 6.0 0.00 0.00 0.00 54 1017.0
20260904155715 95 261 1.0 6.0 0.00 0.00 0.00 57 1016.8
20260904154707 94 333 2.0 6.0 0.00 0.00 0.00 58 1016.9
20260904153730 95 286 1.0 3.0 0.00 0.00 0.00 57 1016.8
20260904151513 94 269 1.0 5.0 0.00 0.00 0.00 58 1016.8
20260904150509 92 266 1.0 5.0 0.00 0.00 0.00 61 1016.8
20260904145534 92 358 1.0 5.0 0.00 0.00 0.00 61 1016.8
20260904144525 91 259 1.0 3.0 0.00 0.00 0.00 61 1016.8